Year,Month,Day,Hour,Minute,Value (Times are PST for temperature in C)
2019,04,01,00,00,9.00
2019,04,01,00,01,9.10
2019,04,01,00,02,9.10
2019,04,01,00,03,9.10
2019,04,01,00,04,9.10
2019,04,01,00,05,9.10
2019,04,01,00,06,9.20
2019,04,01,00,07,9.20
2019,04,01,00,08,9.20
2019,04,01,00,09,9.30
2019,04,01,00,10,9.30
2019,04,01,00,11,9.30
2019,04,01,00,12,9.30
2019,04,01,00,13,9.30
2019,04,01,00,14,9.30
2019,04,01,00,15,9.30
2019,04,01,00,16,9.30
2019,04,01,00,17,9.30
2019,04,01,00,18,9.30
2019,04,01,00,19,9.30
2019,04,01,00,20,9.30
2019,04,01,00,21,9.20
2019,04,01,00,22,9.20
2019,04,01,00,23,9.20
2019,04,01,00,24,9.20
2019,04,01,00,25,9.20
2019,04,01,00,26,9.20
2019,04,01,00,27,9.20
2019,04,01,00,28,9.20
2019,04,01,00,29,9.20
2019,04,01,00,30,9.10
2019,04,01,00,31,9.10
2019,04,01,00,32,9.10
2019,04,01,00,33,9.00
2019,04,01,00,34,9.00
2019,04,01,00,35,8.90
2019,04,01,00,36,8.90
2019,04,01,00,37,8.80
2019,04,01,00,38,8.80
2019,04,01,00,39,8.70
2019,04,01,00,40,8.70
2019,04,01,00,41,8.70
2019,04,01,00,42,8.60
2019,04,01,00,43,8.60
2019,04,01,00,44,8.60
2019,04,01,00,45,8.60
2019,04,01,00,46,8.60
2019,04,01,00,47,8.50
2019,04,01,00,48,8.50
2019,04,01,00,49,8.50
2019,04,01,00,50,8.50
2019,04,01,00,51,8.50
2019,04,01,00,52,8.50
2019,04,01,00,53,8.50
2019,04,01,00,54,8.60
2019,04,01,00,55,8.60
2019,04,01,00,56,8.60
2019,04,01,00,57,8.60
2019,04,01,00,58,8.60
2019,04,01,00,59,8.60
2019,04,01,01,00,8.60
2019,04,01,01,01,8.60
2019,04,01,01,02,8.60
2019,04,01,01,03,8.50
2019,04,01,01,04,8.50
2019,04,01,01,05,8.50
2019,04,01,01,06,8.50
2019,04,01,01,07,8.50
2019,04,01,01,08,8.50
2019,04,01,01,09,8.50
2019,04,01,01,10,8.50
2019,04,01,01,11,8.60
2019,04,01,01,12,8.50
2019,04,01,01,13,8.50
2019,04,01,01,14,8.50
2019,04,01,01,15,8.50
2019,04,01,01,16,8.50
2019,04,01,01,17,8.50
2019,04,01,01,18,8.50
2019,04,01,01,19,8.50
2019,04,01,01,20,8.50
2019,04,01,01,21,8.60
2019,04,01,01,22,8.60
2019,04,01,01,23,8.60
2019,04,01,01,24,8.60
2019,04,01,01,25,8.60
2019,04,01,01,26,8.60
2019,04,01,01,27,8.70
2019,04,01,01,28,8.70
2019,04,01,01,29,8.70
2019,04,01,01,30,8.70
2019,04,01,01,31,8.70
2019,04,01,01,32,8.70
2019,04,01,01,33,8.70
2019,04,01,01,34,8.70
2019,04,01,01,35,8.70
2019,04,01,01,36,8.60
2019,04,01,01,37,8.60
2019,04,01,01,38,8.60
2019,04,01,01,39,8.60
2019,04,01,01,40,8.60
2019,04,01,01,41,8.60
2019,04,01,01,42,8.60
2019,04,01,01,43,8.60
2019,04,01,01,44,8.60
2019,04,01,01,45,8.50
2019,04,01,01,46,8.50
2019,04,01,01,47,8.50
2019,04,01,01,48,8.40
2019,04,01,01,49,8.40
2019,04,01,01,50,8.40
2019,04,01,01,51,8.40
2019,04,01,01,52,8.30
2019,04,01,01,53,8.30
2019,04,01,01,54,8.30
2019,04,01,01,55,8.30
2019,04,01,01,56,8.30
2019,04,01,01,57,8.20
2019,04,01,01,58,8.20
2019,04,01,01,59,8.20
2019,04,01,02,00,8.20
2019,04,01,02,01,8.20
2019,04,01,02,02,8.20
2019,04,01,02,03,8.20
2019,04,01,02,04,8.10
2019,04,01,02,05,8.10
2019,04,01,02,06,8.10
2019,04,01,02,07,8.10
2019,04,01,02,08,8.10
2019,04,01,02,09,8.10
2019,04,01,02,10,8.10
2019,04,01,02,11,8.10
2019,04,01,02,12,8.00
2019,04,01,02,13,8.00
2019,04,01,02,14,8.00
2019,04,01,02,15,8.00
2019,04,01,02,16,7.90
2019,04,01,02,17,7.90
2019,04,01,02,18,7.90
2019,04,01,02,19,7.90
2019,04,01,02,20,7.90
2019,04,01,02,21,7.90
2019,04,01,02,22,7.90
2019,04,01,02,23,7.80
2019,04,01,02,24,7.80
2019,04,01,02,25,7.80
2019,04,01,02,26,7.80
2019,04,01,02,27,7.80
2019,04,01,02,28,7.80
2019,04,01,02,29,7.80
2019,04,01,02,30,7.80
2019,04,01,02,31,7.80
2019,04,01,02,32,7.80
2019,04,01,02,33,7.70
2019,04,01,02,34,7.70
2019,04,01,02,35,7.70
2019,04,01,02,36,7.70
2019,04,01,02,37,7.70
2019,04,01,02,38,7.70
2019,04,01,02,39,7.60
2019,04,01,02,40,7.60
2019,04,01,02,41,7.60
2019,04,01,02,42,7.50
2019,04,01,02,43,7.50
2019,04,01,02,44,7.40
2019,04,01,02,45,7.40
2019,04,01,02,46,7.30
2019,04,01,02,47,7.30
2019,04,01,02,48,7.30
2019,04,01,02,49,7.30
2019,04,01,02,50,7.30
2019,04,01,02,51,7.30
2019,04,01,02,52,7.30
2019,04,01,02,53,7.30
2019,04,01,02,54,7.30
2019,04,01,02,55,7.30
2019,04,01,02,56,7.30
2019,04,01,02,57,7.30
2019,04,01,02,58,7.30
2019,04,01,02,59,7.30
2019,04,01,03,00,7.30
2019,04,01,03,01,7.30
2019,04,01,03,02,7.30
2019,04,01,03,03,7.30
2019,04,01,03,04,7.30
2019,04,01,03,05,7.30
2019,04,01,03,06,7.30
2019,04,01,03,07,7.30
2019,04,01,03,08,7.30
2019,04,01,03,09,7.20
2019,04,01,03,10,7.20
2019,04,01,03,11,7.20
2019,04,01,03,12,7.20
2019,04,01,03,13,7.20
2019,04,01,03,14,7.20
2019,04,01,03,15,7.20
2019,04,01,03,16,7.20
2019,04,01,03,17,7.10
2019,04,01,03,18,7.10
2019,04,01,03,19,7.10
2019,04,01,03,20,7.10
2019,04,01,03,21,7.10
2019,04,01,03,22,7.10
2019,04,01,03,23,7.10
2019,04,01,03,24,7.10
2019,04,01,03,25,7.10
2019,04,01,03,26,7.10
2019,04,01,03,27,7.00
2019,04,01,03,28,7.00
2019,04,01,03,29,7.00
2019,04,01,03,30,7.00
2019,04,01,03,31,6.90
2019,04,01,03,32,6.90
2019,04,01,03,33,6.90
2019,04,01,03,34,6.90
2019,04,01,03,35,6.90
2019,04,01,03,36,6.80
2019,04,01,03,37,6.80
2019,04,01,03,38,6.80
2019,04,01,03,39,6.80
2019,04,01,03,40,6.80
2019,04,01,03,41,6.80
2019,04,01,03,42,6.80
2019,04,01,03,43,6.80
2019,04,01,03,44,6.80
2019,04,01,03,45,6.80
2019,04,01,03,46,6.80
2019,04,01,03,47,6.80
2019,04,01,03,48,6.80
2019,04,01,03,49,6.70
2019,04,01,03,50,6.70
2019,04,01,03,51,6.70
2019,04,01,03,52,6.70
2019,04,01,03,53,6.70
2019,04,01,03,54,6.70
2019,04,01,03,55,6.70
2019,04,01,03,56,6.80
2019,04,01,03,57,6.70
2019,04,01,03,58,6.80
2019,04,01,03,59,6.70
2019,04,01,04,00,6.70
2019,04,01,04,01,6.70
2019,04,01,04,02,6.70
2019,04,01,04,03,6.70
2019,04,01,04,04,6.70
2019,04,01,04,05,6.70
2019,04,01,04,06,6.70
2019,04,01,04,07,6.70
2019,04,01,04,08,6.70
2019,04,01,04,09,6.70
2019,04,01,04,10,6.70
2019,04,01,04,11,6.70
2019,04,01,04,12,6.70
2019,04,01,04,13,6.70
2019,04,01,04,14,6.70
2019,04,01,04,15,6.70
2019,04,01,04,16,6.70
2019,04,01,04,17,6.70
2019,04,01,04,18,6.70
2019,04,01,04,19,6.80
2019,04,01,04,20,6.70
2019,04,01,04,21,6.70
2019,04,01,04,22,6.70
2019,04,01,04,23,6.70
2019,04,01,04,24,6.70
2019,04,01,04,25,6.70
2019,04,01,04,26,6.70
2019,04,01,04,27,6.70
2019,04,01,04,28,6.70
2019,04,01,04,29,6.70
2019,04,01,04,30,6.70
2019,04,01,04,31,6.60
2019,04,01,04,32,6.60
2019,04,01,04,33,6.60
2019,04,01,04,34,6.60
2019,04,01,04,35,6.60
2019,04,01,04,36,6.60
2019,04,01,04,37,6.60
2019,04,01,04,38,6.60
2019,04,01,04,39,6.50
2019,04,01,04,40,6.50
2019,04,01,04,41,6.50
2019,04,01,04,42,6.50
2019,04,01,04,43,6.50
2019,04,01,04,44,6.50
2019,04,01,04,45,6.50
2019,04,01,04,46,6.50
2019,04,01,04,47,6.50
2019,04,01,04,48,6.50
2019,04,01,04,49,6.50
2019,04,01,04,50,6.50
2019,04,01,04,51,6.50
2019,04,01,04,52,6.50
2019,04,01,04,53,6.50
2019,04,01,04,54,6.50
2019,04,01,04,55,6.50
2019,04,01,04,56,6.40
2019,04,01,04,57,6.40
2019,04,01,04,58,6.40
2019,04,01,04,59,6.40
2019,04,01,05,00,6.40
2019,04,01,05,01,6.40
2019,04,01,05,02,6.40
2019,04,01,05,03,6.40
2019,04,01,05,04,6.40
2019,04,01,05,05,6.40
2019,04,01,05,06,6.40
2019,04,01,05,07,6.40
2019,04,01,05,08,6.40
2019,04,01,05,09,6.40
2019,04,01,05,10,6.30
2019,04,01,05,11,6.30
2019,04,01,05,12,6.30
2019,04,01,05,13,6.30
2019,04,01,05,14,6.30
2019,04,01,05,15,6.30
2019,04,01,05,16,6.30
2019,04,01,05,17,6.30
2019,04,01,05,18,6.30
2019,04,01,05,19,6.30
2019,04,01,05,20,6.30
2019,04,01,05,21,6.30
2019,04,01,05,22,6.30
2019,04,01,05,23,6.30
2019,04,01,05,24,6.30
2019,04,01,05,25,6.30
2019,04,01,05,26,6.30
2019,04,01,05,27,6.30
2019,04,01,05,28,6.30
2019,04,01,05,29,6.30
2019,04,01,05,30,6.30
2019,04,01,05,31,6.30
2019,04,01,05,32,6.30
2019,04,01,05,33,6.30
2019,04,01,05,34,6.20
2019,04,01,05,35,6.20
2019,04,01,05,36,6.20
2019,04,01,05,37,6.20
2019,04,01,05,38,6.20
2019,04,01,05,39,6.20
2019,04,01,05,40,6.20
2019,04,01,05,41,6.20
2019,04,01,05,42,6.20
2019,04,01,05,43,6.20
2019,04,01,05,44,6.20
2019,04,01,05,45,6.20
2019,04,01,05,46,6.20
2019,04,01,05,47,6.20
2019,04,01,05,48,6.20
2019,04,01,05,49,6.20
2019,04,01,05,50,6.20
2019,04,01,05,51,6.20
2019,04,01,05,52,6.20
2019,04,01,05,53,6.10
2019,04,01,05,54,6.10
2019,04,01,05,55,6.10
2019,04,01,05,56,6.10
2019,04,01,05,57,6.10
2019,04,01,05,58,6.10
2019,04,01,05,59,6.10
2019,04,01,06,00,6.10
2019,04,01,06,01,6.10
2019,04,01,06,02,6.10
2019,04,01,06,03,6.10
2019,04,01,06,04,6.00
2019,04,01,06,05,6.00
2019,04,01,06,06,6.00
2019,04,01,06,07,6.00
2019,04,01,06,08,6.00
2019,04,01,06,09,6.00
2019,04,01,06,10,6.00
2019,04,01,06,11,6.10
2019,04,01,06,12,6.10
2019,04,01,06,13,6.10
2019,04,01,06,14,6.10
2019,04,01,06,15,6.10
2019,04,01,06,16,6.10
2019,04,01,06,17,6.10
2019,04,01,06,18,6.10
2019,04,01,06,19,6.10
2019,04,01,06,20,6.20
2019,04,01,06,21,6.20
2019,04,01,06,22,6.20
2019,04,01,06,23,6.20
2019,04,01,06,24,6.20
2019,04,01,06,25,6.20
2019,04,01,06,26,6.20
2019,04,01,06,27,6.20
2019,04,01,06,28,6.20
2019,04,01,06,29,6.20
2019,04,01,06,30,6.20
2019,04,01,06,31,6.20
2019,04,01,06,32,6.20
2019,04,01,06,33,6.20
2019,04,01,06,34,6.30
2019,04,01,06,35,6.30
2019,04,01,06,36,6.30
2019,04,01,06,37,6.30
2019,04,01,06,38,6.30
2019,04,01,06,39,6.30
2019,04,01,06,40,6.30
2019,04,01,06,41,6.30
2019,04,01,06,42,6.30
2019,04,01,06,43,6.30
2019,04,01,06,44,6.30
2019,04,01,06,45,6.40
2019,04,01,06,46,6.40
2019,04,01,06,47,6.40
2019,04,01,06,48,6.40
2019,04,01,06,49,6.40
2019,04,01,06,50,6.40
2019,04,01,06,51,6.40
2019,04,01,06,52,6.40
2019,04,01,06,53,6.40
2019,04,01,06,54,6.40
2019,04,01,06,55,6.40
2019,04,01,06,56,6.40
2019,04,01,06,57,6.40
2019,04,01,06,58,6.40
2019,04,01,06,59,6.40
2019,04,01,07,00,6.40
2019,04,01,07,01,6.40
2019,04,01,07,02,6.40
2019,04,01,07,03,6.40
2019,04,01,07,04,6.40
2019,04,01,07,05,6.40
2019,04,01,07,06,6.40
2019,04,01,07,07,6.40
2019,04,01,07,08,6.40
2019,04,01,07,09,6.40
2019,04,01,07,10,6.40
2019,04,01,07,11,6.40
2019,04,01,07,12,6.40
2019,04,01,07,13,6.30
2019,04,01,07,14,6.30
2019,04,01,07,15,6.30
2019,04,01,07,16,6.30
2019,04,01,07,17,6.30
2019,04,01,07,18,6.30
2019,04,01,07,19,6.30
2019,04,01,07,20,6.30
2019,04,01,07,21,6.30
2019,04,01,07,22,6.30
2019,04,01,07,23,6.30
2019,04,01,07,24,6.30
2019,04,01,07,25,6.30
2019,04,01,07,26,6.30
2019,04,01,07,27,6.30
2019,04,01,07,28,6.30
2019,04,01,07,29,6.30
2019,04,01,07,30,6.40
2019,04,01,07,31,6.40
2019,04,01,07,32,6.40
2019,04,01,07,33,6.40
2019,04,01,07,34,6.40
2019,04,01,07,35,6.40
2019,04,01,07,36,6.40
2019,04,01,07,37,6.40
2019,04,01,07,38,6.40
2019,04,01,07,39,6.40
2019,04,01,07,40,6.40
2019,04,01,07,41,6.40
2019,04,01,07,42,6.40
2019,04,01,07,43,6.40
2019,04,01,07,44,6.40
2019,04,01,07,45,6.40
2019,04,01,07,46,6.40
2019,04,01,07,47,6.40
2019,04,01,07,48,6.40
2019,04,01,07,49,6.50
2019,04,01,07,50,6.50
2019,04,01,07,51,6.50
2019,04,01,07,52,6.50
2019,04,01,07,53,6.50
2019,04,01,07,54,6.60
2019,04,01,07,55,6.60
2019,04,01,07,56,6.60
2019,04,01,07,57,6.60
2019,04,01,07,58,6.60
2019,04,01,07,59,6.60
2019,04,01,08,00,6.60
2019,04,01,08,01,6.60
2019,04,01,08,02,6.70
2019,04,01,08,03,6.70
2019,04,01,08,04,6.70
2019,04,01,08,05,6.70
2019,04,01,08,06,6.70
2019,04,01,08,07,6.70
2019,04,01,08,08,6.70
2019,04,01,08,09,6.70
2019,04,01,08,10,6.70
2019,04,01,08,11,6.80
2019,04,01,08,12,6.80
2019,04,01,08,13,6.80
2019,04,01,08,14,6.80
2019,04,01,08,15,6.80
2019,04,01,08,16,6.80
2019,04,01,08,17,6.80
2019,04,01,08,18,6.80
2019,04,01,08,19,6.90
2019,04,01,08,20,6.90
2019,04,01,08,21,6.90
2019,04,01,08,22,6.90
2019,04,01,08,23,6.90
2019,04,01,08,24,7.00
2019,04,01,08,25,7.00
2019,04,01,08,26,7.00
2019,04,01,08,27,7.00
2019,04,01,08,28,7.10
2019,04,01,08,29,7.10
2019,04,01,08,30,7.10
2019,04,01,08,31,7.10
2019,04,01,08,32,7.10
2019,04,01,08,33,7.20
2019,04,01,08,34,7.20
2019,04,01,08,35,7.20
2019,04,01,08,36,7.20
2019,04,01,08,37,7.30
2019,04,01,08,38,7.30
2019,04,01,08,39,7.30
2019,04,01,08,40,7.30
2019,04,01,08,41,7.40
2019,04,01,08,42,7.40
2019,04,01,08,43,7.40
2019,04,01,08,44,7.50
2019,04,01,08,45,7.50
2019,04,01,08,46,7.50
2019,04,01,08,47,7.60
2019,04,01,08,48,7.60
2019,04,01,08,49,7.70
2019,04,01,08,50,7.70
2019,04,01,08,51,7.80
2019,04,01,08,52,7.80
2019,04,01,08,53,7.80
2019,04,01,08,54,7.90
2019,04,01,08,55,7.90
2019,04,01,08,56,8.00
2019,04,01,08,57,8.00
2019,04,01,08,58,8.10
2019,04,01,08,59,8.10
2019,04,01,09,00,8.20
2019,04,01,09,01,8.20
2019,04,01,09,02,8.20
2019,04,01,09,03,8.20
2019,04,01,09,04,8.30
2019,04,01,09,05,8.30
2019,04,01,09,06,8.30
2019,04,01,09,07,8.40
2019,04,01,09,08,8.40
2019,04,01,09,09,8.40
2019,04,01,09,10,8.50
2019,04,01,09,11,8.60
2019,04,01,09,12,8.60
2019,04,01,09,13,8.70
2019,04,01,09,14,8.70
2019,04,01,09,15,8.80
2019,04,01,09,16,8.80
2019,04,01,09,17,8.90
2019,04,01,09,18,8.90
2019,04,01,09,19,9.00
2019,04,01,09,20,9.10
2019,04,01,09,21,9.10
2019,04,01,09,22,9.10
2019,04,01,09,23,9.20
2019,04,01,09,24,9.20
2019,04,01,09,25,9.20
2019,04,01,09,26,9.30
2019,04,01,09,27,9.30
2019,04,01,09,28,9.40
2019,04,01,09,29,9.40
2019,04,01,09,30,9.40
2019,04,01,09,31,9.50
2019,04,01,09,32,9.50
2019,04,01,09,33,9.60
2019,04,01,09,34,9.70
2019,04,01,09,35,9.80
2019,04,01,09,36,9.80
2019,04,01,09,37,9.90
2019,04,01,09,38,9.90
2019,04,01,09,39,10.00
2019,04,01,09,40,10.10
2019,04,01,09,41,10.10
2019,04,01,09,42,10.20
2019,04,01,09,43,10.20
2019,04,01,09,44,10.30
2019,04,01,09,45,10.30
2019,04,01,09,46,10.30
2019,04,01,09,47,10.30
2019,04,01,09,48,10.40
2019,04,01,09,49,10.40
2019,04,01,09,50,10.40
2019,04,01,09,51,10.40
2019,04,01,09,52,10.50
2019,04,01,09,53,10.50
2019,04,01,09,54,10.60
2019,04,01,09,55,10.60
2019,04,01,09,56,10.60
2019,04,01,09,57,10.70
2019,04,01,09,58,10.70
2019,04,01,09,59,10.80
2019,04,01,10,00,10.80
2019,04,01,10,01,10.90
2019,04,01,10,02,10.90
2019,04,01,10,03,11.00
2019,04,01,10,04,11.00
2019,04,01,10,05,11.00
2019,04,01,10,06,11.10
2019,04,01,10,07,11.10
2019,04,01,10,08,11.20
2019,04,01,10,09,11.20
2019,04,01,10,10,11.20
2019,04,01,10,11,11.30
2019,04,01,10,12,11.30
2019,04,01,10,13,11.40
2019,04,01,10,14,11.40
2019,04,01,10,15,11.40
2019,04,01,10,16,11.50
2019,04,01,10,17,11.60
2019,04,01,10,18,11.60
2019,04,01,10,19,11.60
2019,04,01,10,20,11.60
2019,04,01,10,21,11.70
2019,04,01,10,22,11.70
2019,04,01,10,23,11.80
2019,04,01,10,24,11.80
2019,04,01,10,25,11.80
2019,04,01,10,26,11.90
2019,04,01,10,27,11.90
2019,04,01,10,28,12.00
2019,04,01,10,29,12.00
2019,04,01,10,30,12.10
2019,04,01,10,31,12.10
2019,04,01,10,32,12.10
2019,04,01,10,33,12.10
2019,04,01,10,34,12.20
2019,04,01,10,35,12.20
2019,04,01,10,36,12.20
2019,04,01,10,37,12.20
2019,04,01,10,38,12.30
2019,04,01,10,39,12.30
2019,04,01,10,40,12.30
2019,04,01,10,41,12.40
2019,04,01,10,42,12.40
2019,04,01,10,43,12.40
2019,04,01,10,44,12.50
2019,04,01,10,45,12.50
2019,04,01,10,46,12.60
2019,04,01,10,47,12.60
2019,04,01,10,48,12.60
2019,04,01,10,49,12.70
2019,04,01,10,50,12.70
2019,04,01,10,51,12.70
2019,04,01,10,52,12.70
2019,04,01,10,53,12.70
2019,04,01,10,54,12.70
2019,04,01,10,55,12.70
2019,04,01,10,56,12.70
2019,04,01,10,57,12.70
2019,04,01,10,58,12.70
2019,04,01,10,59,12.80
2019,04,01,11,00,12.80
2019,04,01,11,01,12.80
2019,04,01,11,02,12.80
2019,04,01,11,03,12.90
2019,04,01,11,04,12.90
2019,04,01,11,05,12.90
2019,04,01,11,06,12.90
2019,04,01,11,07,12.90
2019,04,01,11,08,12.90
2019,04,01,11,09,13.00
2019,04,01,11,10,13.00
2019,04,01,11,11,13.00
2019,04,01,11,12,13.00
2019,04,01,11,13,13.10
2019,04,01,11,14,13.10
2019,04,01,11,15,13.20
2019,04,01,11,16,13.20
2019,04,01,11,17,13.30
2019,04,01,11,18,13.30
2019,04,01,11,19,13.40
2019,04,01,11,20,13.40
2019,04,01,11,21,13.40
2019,04,01,11,22,13.50
2019,04,01,11,23,13.60
2019,04,01,11,24,13.60
2019,04,01,11,25,13.70
2019,04,01,11,26,13.80
2019,04,01,11,27,13.90
2019,04,01,11,28,14.00
2019,04,01,11,29,14.10
2019,04,01,11,30,14.20
2019,04,01,11,31,14.30
2019,04,01,11,32,14.40
2019,04,01,11,33,14.40
2019,04,01,11,34,14.50
2019,04,01,11,35,14.50
2019,04,01,11,36,14.50
2019,04,01,11,37,14.60
2019,04,01,11,38,14.60
2019,04,01,11,39,14.60
2019,04,01,11,40,14.70
2019,04,01,11,41,14.70
2019,04,01,11,42,14.70
2019,04,01,11,43,14.80
2019,04,01,11,44,14.80
2019,04,01,11,45,14.80
2019,04,01,11,46,14.80
2019,04,01,11,47,14.90
2019,04,01,11,48,15.00
2019,04,01,11,49,15.00
2019,04,01,11,50,15.10
2019,04,01,11,51,15.20
2019,04,01,11,52,15.20
2019,04,01,11,53,15.20
2019,04,01,11,54,15.30
2019,04,01,11,55,15.30
2019,04,01,11,56,15.30
2019,04,01,11,57,15.40
2019,04,01,11,58,15.40
2019,04,01,11,59,15.40
2019,04,01,12,00,15.40
2019,04,01,12,01,15.50
2019,04,01,12,02,15.50
2019,04,01,12,03,15.60
2019,04,01,12,04,15.60
2019,04,01,12,05,15.70
2019,04,01,12,06,15.70
2019,04,01,12,07,15.80
2019,04,01,12,08,15.80
2019,04,01,12,09,15.80
2019,04,01,12,10,15.80
2019,04,01,12,11,15.80
2019,04,01,12,12,15.80
2019,04,01,12,13,15.80
2019,04,01,12,14,15.80
2019,04,01,12,15,15.90
2019,04,01,12,16,15.90
2019,04,01,12,17,15.90
2019,04,01,12,18,16.00
2019,04,01,12,19,16.00
2019,04,01,12,20,16.10
2019,04,01,12,21,16.20
2019,04,01,12,22,16.30
2019,04,01,12,23,16.30
2019,04,01,12,24,16.40
2019,04,01,12,25,16.50
2019,04,01,12,26,16.50
2019,04,01,12,27,16.60
2019,04,01,12,28,16.70
2019,04,01,12,29,16.70
2019,04,01,12,30,16.80
2019,04,01,12,31,16.80
2019,04,01,12,32,16.80
2019,04,01,12,33,16.90
2019,04,01,12,34,16.90
2019,04,01,12,35,16.90
2019,04,01,12,36,17.00
2019,04,01,12,37,17.00
2019,04,01,12,38,17.00
2019,04,01,12,39,17.00
2019,04,01,12,40,17.00
2019,04,01,12,41,17.00
2019,04,01,12,42,17.10
2019,04,01,12,43,17.10
2019,04,01,12,44,17.10
2019,04,01,12,45,17.10
2019,04,01,12,46,17.20
2019,04,01,12,47,17.20
2019,04,01,12,48,17.10
2019,04,01,12,49,17.00
2019,04,01,12,50,17.00
2019,04,01,12,51,16.90
2019,04,01,12,52,16.90
2019,04,01,12,53,16.90
2019,04,01,12,54,16.90
2019,04,01,12,55,16.90
2019,04,01,12,56,16.80
2019,04,01,12,57,16.80
2019,04,01,12,58,16.80
2019,04,01,12,59,16.80
2019,04,01,13,00,16.80
2019,04,01,13,01,16.80
2019,04,01,13,02,16.80
2019,04,01,13,03,16.80
2019,04,01,13,04,16.80
2019,04,01,13,05,16.80
2019,04,01,13,06,16.80
2019,04,01,13,07,16.70
2019,04,01,13,08,16.70
2019,04,01,13,09,16.80
2019,04,01,13,10,16.80
2019,04,01,13,11,16.80
2019,04,01,13,12,16.90
2019,04,01,13,13,16.90
2019,04,01,13,14,16.90
2019,04,01,13,15,16.90
2019,04,01,13,16,17.00
2019,04,01,13,17,17.10
2019,04,01,13,18,17.10
2019,04,01,13,19,17.10
2019,04,01,13,20,17.10
2019,04,01,13,21,17.20
2019,04,01,13,22,17.20
2019,04,01,13,23,17.20
2019,04,01,13,24,17.20
2019,04,01,13,25,17.20
2019,04,01,13,26,17.20
2019,04,01,13,27,17.20
2019,04,01,13,28,17.10
2019,04,01,13,29,17.10
2019,04,01,13,30,17.00
2019,04,01,13,31,16.90
2019,04,01,13,32,16.90
2019,04,01,13,33,16.80
2019,04,01,13,34,16.80
2019,04,01,13,35,16.80
2019,04,01,13,36,16.80
2019,04,01,13,37,16.80
2019,04,01,13,38,16.90
2019,04,01,13,39,16.90
2019,04,01,13,40,16.90
2019,04,01,13,41,17.00
2019,04,01,13,42,17.00
2019,04,01,13,43,16.90
2019,04,01,13,44,16.90
2019,04,01,13,45,16.90
2019,04,01,13,46,16.90
2019,04,01,13,47,16.80
2019,04,01,13,48,16.80
2019,04,01,13,49,16.80
2019,04,01,13,50,16.80
2019,04,01,13,51,16.90
2019,04,01,13,52,16.90
2019,04,01,13,53,16.90
2019,04,01,13,54,16.90
2019,04,01,13,55,16.90
2019,04,01,13,56,16.90
2019,04,01,13,57,16.90
2019,04,01,13,58,16.90
2019,04,01,13,59,16.90
2019,04,01,14,00,17.00
2019,04,01,14,01,17.00
2019,04,01,14,02,17.00
2019,04,01,14,03,17.10
2019,04,01,14,04,17.10
2019,04,01,14,05,17.20
2019,04,01,14,06,17.20
2019,04,01,14,07,17.20
2019,04,01,14,08,17.20
2019,04,01,14,09,17.30
2019,04,01,14,10,17.30
2019,04,01,14,11,17.30
2019,04,01,14,12,17.30
2019,04,01,14,13,17.30
2019,04,01,14,14,17.30
2019,04,01,14,15,17.30
2019,04,01,14,16,17.30
2019,04,01,14,17,17.30
2019,04,01,14,18,17.20
2019,04,01,14,19,17.20
2019,04,01,14,20,17.20
2019,04,01,14,21,17.20
2019,04,01,14,22,17.30
2019,04,01,14,23,17.30
2019,04,01,14,24,17.30
2019,04,01,14,25,17.40
2019,04,01,14,26,17.40
2019,04,01,14,27,17.40
2019,04,01,14,28,17.40
2019,04,01,14,29,17.30
2019,04,01,14,30,17.30
2019,04,01,14,31,17.30
2019,04,01,14,32,17.30
2019,04,01,14,33,17.30
2019,04,01,14,34,17.40
2019,04,01,14,35,17.40
2019,04,01,14,36,17.40
2019,04,01,14,37,17.50
2019,04,01,14,38,17.60
2019,04,01,14,39,17.60
2019,04,01,14,40,17.60
2019,04,01,14,41,17.60
2019,04,01,14,42,17.70
2019,04,01,14,43,17.80
2019,04,01,14,44,17.90
2019,04,01,14,45,17.90
2019,04,01,14,46,18.00
2019,04,01,14,47,18.10
2019,04,01,14,48,18.20
2019,04,01,14,49,18.20
2019,04,01,14,50,18.20
2019,04,01,14,51,18.30
2019,04,01,14,52,18.30
2019,04,01,14,53,18.30
2019,04,01,14,54,18.30
2019,04,01,14,55,18.30
2019,04,01,14,56,18.40
2019,04,01,14,57,18.30
2019,04,01,14,58,18.30
2019,04,01,14,59,18.30
2019,04,01,15,00,18.30
2019,04,01,15,01,18.30
2019,04,01,15,02,18.30
2019,04,01,15,03,18.40
2019,04,01,15,04,18.40
2019,04,01,15,05,18.40
2019,04,01,15,06,18.40
2019,04,01,15,07,18.40
2019,04,01,15,08,18.40
2019,04,01,15,09,18.40
2019,04,01,15,10,18.40
2019,04,01,15,11,18.50
2019,04,01,15,12,18.50
2019,04,01,15,13,18.60
2019,04,01,15,14,18.60
2019,04,01,15,15,18.60
2019,04,01,15,16,18.60
2019,04,01,15,17,18.60
2019,04,01,15,18,18.60
2019,04,01,15,19,18.60
2019,04,01,15,20,18.60
2019,04,01,15,21,18.50
2019,04,01,15,22,18.50
2019,04,01,15,23,18.50
2019,04,01,15,24,18.50
2019,04,01,15,25,18.40
2019,04,01,15,26,18.40
2019,04,01,15,27,18.40
2019,04,01,15,28,18.40
2019,04,01,15,29,18.30
2019,04,01,15,30,18.30
2019,04,01,15,31,18.30
2019,04,01,15,32,18.40
2019,04,01,15,33,18.40
2019,04,01,15,34,18.40
2019,04,01,15,35,18.40
2019,04,01,15,36,18.40
2019,04,01,15,37,18.40
2019,04,01,15,38,18.40
2019,04,01,15,39,18.40
2019,04,01,15,40,18.40
2019,04,01,15,41,18.40
2019,04,01,15,42,18.40
2019,04,01,15,43,18.30
2019,04,01,15,44,18.30
2019,04,01,15,45,18.30
2019,04,01,15,46,18.30
2019,04,01,15,47,18.40
2019,04,01,15,48,18.40
2019,04,01,15,49,18.40
2019,04,01,15,50,18.40
2019,04,01,15,51,18.40
2019,04,01,15,52,18.40
2019,04,01,15,53,18.40
2019,04,01,15,54,18.40
2019,04,01,15,55,18.40
2019,04,01,15,56,18.40
2019,04,01,15,57,18.40
2019,04,01,15,58,18.40
2019,04,01,15,59,18.40
2019,04,01,16,00,18.40
2019,04,01,16,01,18.50
2019,04,01,16,02,18.50
2019,04,01,16,03,18.60
2019,04,01,16,04,18.70
2019,04,01,16,05,18.70
2019,04,01,16,06,18.70
2019,04,01,16,07,18.70
2019,04,01,16,08,18.70
2019,04,01,16,09,18.60
2019,04,01,16,10,18.60
2019,04,01,16,11,18.60
2019,04,01,16,12,18.60
2019,04,01,16,13,18.60
2019,04,01,16,14,18.60
2019,04,01,16,15,18.60
2019,04,01,16,16,18.60
2019,04,01,16,17,18.70
2019,04,01,16,18,18.70
2019,04,01,16,19,18.70
2019,04,01,16,20,18.80
2019,04,01,16,21,18.80
2019,04,01,16,22,18.80
2019,04,01,16,23,18.90
2019,04,01,16,24,18.90
2019,04,01,16,25,18.90
2019,04,01,16,26,19.00
2019,04,01,16,27,19.00
2019,04,01,16,28,19.10
2019,04,01,16,29,19.10
2019,04,01,16,30,19.10
2019,04,01,16,31,19.10
2019,04,01,16,32,19.00
2019,04,01,16,33,19.00
2019,04,01,16,34,19.00
2019,04,01,16,35,19.10
2019,04,01,16,36,19.10
2019,04,01,16,37,19.10
2019,04,01,16,38,19.10
2019,04,01,16,39,19.20
2019,04,01,16,40,19.20
2019,04,01,16,41,19.20
2019,04,01,16,42,19.20
2019,04,01,16,43,19.20
2019,04,01,16,44,19.20
2019,04,01,16,45,19.20
2019,04,01,16,46,19.20
2019,04,01,16,47,19.20
2019,04,01,16,48,19.20
2019,04,01,16,49,19.30
2019,04,01,16,50,19.30
2019,04,01,16,51,19.30
2019,04,01,16,52,19.30
2019,04,01,16,53,19.30
2019,04,01,16,54,19.30
2019,04,01,16,55,19.30
2019,04,01,16,56,19.30
2019,04,01,16,57,19.30
2019,04,01,16,58,19.40
2019,04,01,16,59,19.40
2019,04,01,17,00,19.40
2019,04,01,17,01,19.50
2019,04,01,17,02,19.50
2019,04,01,17,03,19.60
2019,04,01,17,04,19.60
2019,04,01,17,05,19.70
2019,04,01,17,06,19.70
2019,04,01,17,07,19.80
2019,04,01,17,08,19.80
2019,04,01,17,09,19.90
2019,04,01,17,10,19.90
2019,04,01,17,11,19.90
2019,04,01,17,12,19.90
2019,04,01,17,13,19.90
2019,04,01,17,14,19.80
2019,04,01,17,15,19.70
2019,04,01,17,16,19.70
2019,04,01,17,17,19.70
2019,04,01,17,18,19.60
2019,04,01,17,19,19.50
2019,04,01,17,20,19.50
2019,04,01,17,21,19.50
2019,04,01,17,22,19.40
2019,04,01,17,23,19.40
2019,04,01,17,24,19.40
2019,04,01,17,25,19.40
2019,04,01,17,26,19.40
2019,04,01,17,27,19.40
2019,04,01,17,28,19.40
2019,04,01,17,29,19.40
2019,04,01,17,30,19.50
2019,04,01,17,31,19.50
2019,04,01,17,32,19.60
2019,04,01,17,33,19.60
2019,04,01,17,34,19.70
2019,04,01,17,35,19.70
2019,04,01,17,36,19.70
2019,04,01,17,37,19.70
2019,04,01,17,38,19.80
2019,04,01,17,39,19.80
2019,04,01,17,40,19.80
2019,04,01,17,41,19.80
2019,04,01,17,42,19.80
2019,04,01,17,43,19.80
2019,04,01,17,44,19.80